Temperature
22 23 24 24 24 23 22 20 19 19 18 18 18 18 19 19 18 17 17 16 16 15 14 14 13 12 12 11 11 10 10 10 9 9 9 8 8 8 8 8 8 8 8 8
22 24 24 24 24 24 23 22 20 19 19 19 19 19 18 18 17 17 16 16 15 14 14 13 12 12 11 11 10 10 10 9 9 8 8 8 8 8 8 7 7 7 8 8
20 22 23 22 23 23 23 22 20 19 19 18 17 17 17 17 17 17 16 15 15 14 13 13 12 11 11 11 10 10 9 9 8 8 8 8 8 8 7 7 7 7 7 7
19 21 22 21 22 23 21 20 20 19 18 18 18 18 18 18 17 16 16 15 14 14 13 12 12 11 11 10 10 9 9 9 8 8 8 8 8 8 7 7 7 7 7 7
18 20 21 22 22 22 20 20 20 19 18 18 18 17 16 17 17 16 15 15 14 13 13 12 11 11 10 10 9 9 9 8 8 8 8 8 8 8 7 7 7 7 7 7
19 20 20 21 22 23 20 19 20 19 18 18 17 14 15 17 16 16 15 14 14 13 12 12 11 11 10 10 9 9 9 8 8 8 8 8 8 8 8 7 7 7 7 7
19 19 20 21 23 23 21 19 21 21 20 20 18 17 18 17 16 16 15 14 13 13 12 11 11 10 10 9 9 9 9 8 8 8 8 8 8 8 8 7 7 7 7 7
18 19 19 21 22 21 20 21 22 21 21 20 20 19 18 17 16 16 15 14 13 12 12 11 11 10 10 9 9 9 9 8 8 8 8 8 8 8 8 7 7 7 7 7
18 19 21 24 24 24 23 22 22 22 21 20 19 18 18 17 16 15 15 14 13 12 12 11 10 10 9 9 9 9 9 8 8 8 8 8 8 8 8 7 7 7 7 7
20 20 22 24 24 24 24 23 22 22 21 20 20 19 18 17 16 15 15 14 13 12 12 11 10 10 9 9 9 9 9 8 8 8 8 8 8 8 8 7 7 7 7 7
19 20 22 23 24 24 23 23 22 22 21 20 20 19 18 17 16 15 14 14 13 12 12 11 10 10 9 9 9 9 9 8 8 8 8 8 8 8 8 7 7 7 7 7
20 21 20 23 24 24 23 22 22 21 21 20 20 19 18 17 16 15 14 14 13 12 11 11 10 10 9 9 9 9 9 8 8 8 8 8 8 8 8 8 8 8 7 7
25 25 25 24 24 24 23 23 22 22 21 20 20 19 18 17 16 15 14 14 13 12 11 11 10 10 9 9 9 9 8 8 8 8 8 8 8 8 8 8 8 8 8 7
25 25 24 24 23 23 23 23 22 22 21 21 20 19 18 17 16 15 14 14 13 12 11 11 10 10 9 9 9 9 8 8 8 8 8 8 8 8 8 8 8 8 8 7
24 24 24 24 23 23 23 22 22 21 21 20 19 19 18 17 16 15 14 13 13 12 11 11 10 10 9 9 9 9 9 8 8 8 8 8 8 8 8 8 8 8 8 8
23 23 23 23 23 23 22 22 21 21 20 20 19 18 18 17 16 15 14 13 13 12 11 11 10 10 10 9 9 9 9 8 8 8 8 8 8 9 9 8 8 8 8 8
21 21 21 21 21 22 22 22 21 21 20 20 19 18 17 16 15 15 14 13 13 12 11 11 10 10 10 9 9 9 9 9 8 8 8 8 9 9 9 9 8 8 8 8
19 20 20 20 21 21 21 21 21 20 20 19 18 17 17 16 16 15 14 13 13 12 12 11 10 10 10 9 9 9 9 8 8 8 9 9 9 9 9 9 9 9 8 8
18 18 19 19 19 20 20 20 20 19 19 19 18 18 17 16 16 15 14 13 13 12 12 11 11 10 10 9 9 9 9 8 9 9 9 9 9 9 9 9 9 9 9 8
17 17 18 18 19 19 19 19 19 18 18 18 18 17 17 16 16 15 14 14 13 12 12 11 11 10 10 9 9 9 9 8 8 9 9 9 9 9 9 9 9 9 9 9
15 16 16 16 17 17 17 18 18 17 17 17 17 17 16 16 15 15 14 13 13 12 12 11 11 10 10 9 9 9 8 8 8 9 9 9 9 9 9 9 9 9 9 9
14 15 15 15 15 16 16 16 16 16 16 16 16 16 16 16 15 14 14 13 13 12 11 11 10 10 9 9 9 8 8 8 8 8 9 9 9 9 9 9 9 9 9 9
14 14 14 14 15 15 15 15 15 15 15 16 16 16 15 15 15 14 14 13 12 12 11 11 10 10 9 9 8 8 8 8 8 8 8 9 9 9 9 9 9 9 9 9
13 13 13 14 14 14 14 14 15 15 15 15 15 15 15 15 14 14 13 13 12 11 11 10 10 9 9 9 8 8 8 8 8 8 8 8 9 9 9 9 9 9 9 9
13 13 13 13 13 13 13 13 14 14 14 14 14 14 14 14 14 13 13 12 12 11 10 10 10 9 9 8 8 8 7 7 8 8 8 8 9 9 9 9 9 10 10 10
12 12 12 12 12 12 12 13 13 13 13 13 13 13 14 13 13 12 12 11 11 10 10 9 9 9 8 8 8 7 7 7 7 7 8 8 8 9 9 9 9 10 10 9
11 11 11 11 11 11 11 12 12 12 12 12 12 13 13 13 12 12 11 11 10 10 9 9 9 8 8 7 7 7 7 7 7 7 7 8 8 8 9 9 9 9 9 10
Wind_Speed
5 5 3 3 2 2 5 8 7 9 10 10 10 9 8 7 7 7 6 4 3 2 2 2 3 4 4 4 5 5 5 6 7 7 7 7 7 8 8 8 9 8 8 9
5 5 4 3 1 3 4 6 9 10 6 7 6 5 5 7 8 7 5 4 3 1 1 2 3 4 4 5 6 5 5 6 7 7 7 8 8 8 8 9 9 9 9 9
4 7 4 2 2 3 4 5 9 8 7 7 6 7 8 7 7 7 5 4 2 2 3 3 4 3 4 5 5 5 6 7 7 7 8 8 9 9 9 9 9 9 9 9
1 5 2 7 2 7 7 4 6 8 8 8 8 7 7 8 8 7 5 4 3 2 3 3 3 3 4 5 5 6 7 7 7 8 8 9 9 9 9 8 9 9 9 9
3 1 4 3 2 5 7 3 4 9 8 7 7 5 1 5 7 7 5 4 4 3 3 2 3 4 4 5 6 6 7 8 8 8 9 10 10 10 10 9 9 9 8 9
3 2 5 7 5 5 9 2 4 8 9 8 7 3 4 6 6 6 5 3 3 2 1 2 4 3 4 6 6 7 8 9 9 9 9 10 11 10 9 8 9 9 9 8
4 4 6 7 5 4 3 8 7 9 9 8 7 7 6 7 6 5 4 4 2 1 1 4 4 3 4 6 7 8 8 9 9 9 9 10 9 8 9 9 8 8 9 8
4 4 7 8 5 7 9 7 8 9 10 9 8 7 8 8 6 5 3 2 1 0 3 4 3 3 5 7 8 8 8 9 10 10 9 9 9 9 9 8 8 8 7 8
8 8 9 7 9 8 9 9 9 9 9 10 10 8 8 7 6 4 3 2 1 1 3 4 4 3 5 7 7 7 8 9 10 10 9 9 9 9 9 7 6 6 6 6
3 7 6 6 6 7 9 9 9 9 10 10 10 9 8 7 5 4 3 2 2 2 3 5 5 5 5 6 6 7 8 9 9 9 10 10 8 7 7 7 6 6 6 6
4 5 0 3 7 9 8 8 9 9 9 11 11 9 9 7 6 5 4 3 2 2 3 5 5 5 6 5 5 7 8 8 9 8 9 9 8 7 7 7 7 7 6 6
5 7 6 7 8 9 11 10 11 11 9 9 10 10 9 8 6 5 5 3 2 3 3 4 4 5 5 5 5 6 7 8 7 8 8 7 8 9 10 9 11 11 10 8
7 6 6 6 7 9 10 12 12 12 12 11 9 9 9 7 6 6 5 4 3 3 4 3 4 4 5 5 6 6 7 8 7 7 8 8 7 7 9 9 10 9 9 8
5 4 3 4 6 7 9 11 11 10 10 11 10 9 8 7 5 5 5 5 4 3 3 3 3 4 5 6 6 7 8 9 8 7 7 8 8 7 6 7 8 7 7 8
5 5 6 5 5 5 7 8 9 9 9 9 9 9 9 8 7 6 6 5 3 2 3 3 3 5 6 6 6 7 7 6 7 7 7 7 7 7 7 7 6 6 5 5
2 0 2 3 4 5 5 8 9 9 10 10 10 10 9 8 7 6 5 5 4 4 4 4 4 5 6 6 6 6 6 11 10 7 7 7 7 7 7 6 6 6 6 5
5 3 1 1 2 3 5 7 9 9 9 10 10 9 9 8 6 5 5 6 6 5 5 4 4 5 5 4 5 5 6 9 12 9 7 7 7 7 6 6 6 6 5 5
7 4 3 1 2 2 3 3 4 7 8 9 10 10 9 9 8 8 7 6 4 3 4 4 4 4 4 3 4 5 5 6 7 7 7 7 7 7 6 6 6 6 5 5
14 13 11 8 5 2 1 2 3 5 7 8 9 10 9 9 9 8 7 6 5 5 5 5 4 2 2 4 6 4 5 7 7 7 6 8 8 6 6 6 6 5 5 5
16 16 14 13 10 6 2 1 3 4 6 7 8 8 8 8 8 8 7 6 6 6 5 4 2 2 2 4 6 4 5 6 6 7 7 6 7 7 6 6 6 5 5 5
15 15 15 15 13 11 7 4 0 3 5 7 8 9 9 8 8 7 6 5 5 5 5 4 3 2 2 4 6 4 5 6 6 6 6 7 7 7 6 6 6 5 5 5
11 11 11 11 10 10 8 6 4 3 4 6 7 7 7 8 7 6 6 6 6 8 5 3 3 3 2 4 3 4 5 5 5 6 6 6 6 6 6 6 6 5 5 4
9 9 10 10 10 9 9 8 6 5 6 7 8 8 8 8 6 6 5 4 6 8 6 4 5 3 1 2 2 3 4 5 5 6 6 6 6 6 6 6 6 5 5 5
9 10 10 10 9 8 10 10 9 7 7 7 8 8 7 6 5 5 4 9 11 9 5 6 7 3 0 1 2 3 4 5 5 5 6 6 6 6 6 6 6 6 5 6
10 9 9 9 9 8 9 9 8 7 6 5 6 7 6 6 6 5 5 7 10 8 5 6 6 4 2 1 1 2 3 4 5 5 6 6 6 6 6 6 6 6 6 6
10 9 8 7 6 6 6 6 5 5 5 5 5 5 4 3 4 5 5 7 8 8 5 4 3 3 2 1 1 2 3 4 5 5 6 6 6 6 6 6 7 7 6 6
8 6 5 6 6 6 5 5 5 5 5 5 5 5 3 3 4 5 7 6 6 5 4 4 3 3 3 2 2 2 3 3 4 4 5 5 6 6 7 7 6 6 6 6
Wind_Direction
248 263 281 270 254 178 149 162 156 174 170 193 191 186 186 167 147 133 134 138 145 177 247 274 287 291 293 296 297 299 301 298 289 286 286 288 289 287 284 281 284 275 272 270
325 316 323 322 337 115 117 121 132 140 175 201 184 158 146 143 138 138 148 158 167 197 251 275 281 283 293 296 294 296 300 295 292 294 295 293 291 288 286 282 279 276 272 270
291 308 0 323 242 116 105 137 148 167 184 170 157 160 162 158 151 156 167 179 201 235 248 261 271 272 283 288 297 308 305 299 297 298 297 295 298 298 289 284 279 279 274 267
231 8 306 251 236 117 99 67 119 129 152 163 164 167 174 168 159 166 176 190 216 233 250 260 268 279 287 300 309 308 304 302 301 300 299 299 296 293 288 283 280 278 276 270
130 236 282 287 278 146 122 78 138 137 146 146 137 105 155 191 170 174 183 191 205 215 223 253 281 289 306 313 312 310 306 303 301 300 301 303 301 297 292 286 284 278 275 272
151 179 241 244 242 143 104 121 203 150 150 153 141 126 238 203 176 173 175 178 188 212 240 289 287 297 317 312 311 306 301 299 299 299 298 299 298 295 290 286 282 283 282 275
189 211 254 238 214 122 140 220 199 162 159 156 167 193 195 175 176 170 165 168 164 136 292 280 280 304 315 309 301 294 297 302 304 302 300 296 294 293 294 294 293 290 288 285
169 190 248 229 174 173 201 187 169 160 162 159 165 159 155 163 165 159 156 162 148 301 294 286 285 302 308 301 292 297 304 308 308 306 307 311 303 301 300 300 299 297 295 296
186 211 228 202 191 193 160 164 172 167 167 153 149 159 163 165 167 170 168 189 211 245 293 297 292 285 294 291 297 306 312 312 310 310 308 305 302 303 306 305 300 298 299 297
233 257 230 199 180 172 169 169 170 163 159 151 154 160 161 167 176 182 193 204 221 266 299 297 292 289 280 290 303 311 313 311 310 312 311 311 308 302 301 302 300 299 298 295
290 285 261 194 186 180 173 158 154 154 156 156 153 161 166 173 183 191 199 211 212 242 271 281 290 294 296 305 316 317 312 309 311 309 307 309 309 302 295 283 273 276 281 276
237 234 194 216 208 174 164 166 163 157 159 162 161 165 164 172 183 186 194 200 217 251 266 278 288 295 302 308 313 314 314 314 311 311 310 309 311 313 305 292 290 278 263 258
217 221 194 196 178 168 167 172 173 168 168 171 169 162 159 169 181 182 187 194 213 238 253 267 284 295 298 305 311 309 305 306 308 310 311 312 311 310 313 315 309 298 286 276
201 152 140 168 178 178 173 175 171 169 171 168 164 158 155 160 172 180 192 204 204 216 241 258 276 287 293 304 312 309 306 309 313 307 307 307 306 304 298 303 312 315 305 288
204 177 184 194 184 176 165 156 158 170 170 164 159 158 158 164 180 191 193 185 178 209 250 265 270 282 294 306 311 310 310 308 309 308 308 306 306 308 305 304 303 306 310 309
220 111 113 130 168 174 156 159 171 183 178 172 169 169 166 166 175 180 178 173 182 233 251 246 251 272 293 305 313 313 311 316 321 313 312 313 314 316 314 311 309 308 307 299
71 42 28 139 184 189 186 185 186 185 176 170 170 164 156 155 163 181 195 198 205 224 224 217 239 273 294 302 310 310 310 314 320 319 311 311 311 311 310 309 309 312 306 296
49 44 39 125 194 205 207 192 170 160 162 166 162 159 163 169 184 200 207 207 213 225 222 216 236 276 298 302 308 308 307 304 306 306 309 314 312 308 309 313 314 313 311 313
35 31 28 26 14 26 89 139 162 163 161 159 163 173 181 187 191 197 197 199 212 225 231 229 246 266 298 308 328 310 309 308 311 311 313 316 317 313 314 316 316 315 316 319
28 23 21 19 19 19 25 111 156 167 175 173 172 178 191 198 194 193 194 210 217 209 203 208 206 225 286 307 329 310 309 311 313 316 320 323 322 320 320 322 323 320 320 321
20 17 15 11 4 359 355 352 221 201 205 195 189 197 206 209 198 189 192 220 225 199 195 190 175 207 276 305 318 312 314 316 317 318 320 323 324 325 324 326 328 325 325 325
6 4 358 353 349 342 333 326 304 254 230 223 218 212 206 209 207 206 212 212 194 186 181 170 176 216 284 320 317 317 320 323 324 325 325 324 327 327 327 329 330 327 328 325
344 339 335 329 324 317 313 310 295 272 249 236 228 221 216 213 202 196 224 211 173 180 175 180 192 205 323 337 323 328 329 330 330 329 327 327 327 326 325 326 328 328 330 333
328 324 320 317 319 318 312 305 298 286 269 257 244 231 218 214 222 216 199 173 174 176 178 186 192 192 137 0 342 343 336 333 331 329 331 331 333 335 337 337 337 339 341 344
315 313 314 319 320 313 304 307 309 302 292 282 269 248 228 210 206 203 171 166 171 169 174 188 195 178 130 62 13 351 339 334 334 336 340 341 342 344 344 347 350 352 354 355
307 305 303 303 305 307 311 316 317 314 315 309 296 275 246 214 178 153 153 165 169 167 168 177 174 148 121 88 28 3 351 345 347 352 350 349 349 351 352 357 3 6 2 0
308 314 324 336 338 336 337 339 332 325 320 311 300 288 255 198 167 161 158 159 161 158 152 146 135 123 107 82 41 16 5 358 355 356 355 353 352 352 355 2 7 5 8 14
Height
1494 1488 1486 1486 1485 1485 1490 1497 1509 1509 1509 1505 1502 1501 1502 1502 1502 1503 1503 1502 1501 1499 1497 1495 1493 1490 1487 1483 1480 1476 1473 1469 1465 1461 1457 1453 1449 1446 1443 1439 1436 1434 1431 1429
1494 1486 1485 1486 1483 1483 1484 1488 1496 1502 1504 1498 1498 1499 1500 1500 1501 1501 1500 1500 1498 1496 1494 1492 1489 1486 1483 1479 1476 1472 1468 1464 1460 1456 1452 1448 1444 1440 1436 1433 1430 1427 1425 1423
1505 1493 1490 1497 1486 1484 1486 1485 1492 1501 1499 1496 1498 1498 1498 1499 1499 1498 1498 1497 1495 1493 1491 1488 1485 1482 1479 1476 1472 1468 1464 1460 1456 1451 1447 1442 1438 1435 1431 1428 1425 1422 1419 1417
1506 1503 1509 1496 1478 1479 1486 1487 1486 1489 1492 1493 1494 1496 1496 1496 1496 1496 1495 1494 1492 1490 1487 1485 1482 1479 1476 1472 1468 1464 1460 1455 1451 1446 1442 1437 1433 1430 1426 1423 1419 1416 1413 1410
1508 1510 1503 1488 1480 1480 1487 1493 1487 1489 1491 1492 1494 1495 1496 1495 1494 1493 1492 1490 1489 1487 1484 1482 1479 1475 1472 1468 1464 1460 1455 1451 1446 1442 1437 1433 1429 1425 1421 1418 1414 1411 1408 1405
1504 1508 1510 1492 1477 1475 1482 1495 1487 1486 1488 1490 1491 1497 1495 1492 1491 1490 1489 1487 1486 1484 1481 1478 1475 1472 1468 1464 1460 1456 1451 1447 1443 1438 1433 1429 1425 1421 1417 1413 1409 1406 1403 1400
1502 1505 1496 1479 1473 1475 1493 1493 1482 1482 1483 1485 1486 1488 1488 1488 1488 1488 1486 1485 1483 1481 1478 1475 1472 1468 1465 1461 1456 1452 1448 1444 1439 1434 1430 1426 1421 1417 1413 1409 1405 1402 1398 1395
1499 1504 1497 1470 1471 1476 1477 1474 1476 1478 1479 1481 1482 1484 1485 1485 1485 1485 1483 1482 1480 1477 1475 1472 1469 1465 1461 1457 1453 1449 1445 1440 1436 1431 1427 1423 1418 1414 1410 1405 1401 1398 1394 1391
1484 1483 1466 1463 1464 1465 1467 1470 1472 1474 1476 1477 1479 1481 1482 1482 1482 1481 1480 1479 1477 1475 1472 1469 1466 1462 1458 1454 1450 1446 1442 1437 1433 1428 1424 1420 1415 1411 1406 1402 1398 1394 1390 1387
1471 1465 1460 1460 1461 1463 1464 1466 1469 1471 1473 1474 1476 1477 1478 1479 1479 1478 1477 1476 1474 1471 1469 1466 1463 1460 1456 1452 1447 1443 1439 1434 1430 1425 1421 1417 1413 1408 1404 1399 1395 1391 1388 1384
1469 1462 1460 1460 1459 1461 1463 1465 1467 1469 1470 1471 1472 1474 1475 1475 1475 1474 1473 1472 1470 1468 1466 1463 1460 1456 1453 1449 1444 1440 1436 1432 1427 1423 1419 1414 1410 1406 1402 1398 1394 1389 1385 1382
1467 1459 1458 1457 1457 1459 1460 1462 1464 1466 1467 1468 1469 1469 1470 1471 1471 1471 1470 1469 1467 1465 1463 1460 1457 1453 1450 1446 1442 1437 1433 1429 1425 1421 1416 1412 1408 1403 1399 1396 1391 1387 1383 1379
1456 1455 1454 1454 1455 1457 1458 1459 1461 1462 1463 1464 1465 1466 1467 1467 1468 1467 1466 1465 1464 1462 1459 1457 1454 1450 1447 1443 1439 1435 1431 1427 1422 1418 1414 1410 1406 1401 1397 1393 1389 1385 1380 1377
1453 1453 1453 1453 1453 1454 1455 1456 1457 1458 1459 1460 1461 1462 1463 1464 1464 1464 1463 1462 1460 1458 1456 1454 1451 1448 1444 1440 1436 1433 1429 1425 1421 1416 1412 1408 1404 1400 1396 1391 1386 1382 1379 1375
1449 1449 1450 1450 1450 1451 1451 1452 1453 1454 1455 1456 1457 1458 1459 1460 1461 1460 1459 1458 1457 1455 1453 1451 1448 1445 1441 1437 1434 1430 1426 1422 1418 1415 1411 1407 1403 1399 1395 1391 1386 1382 1378 1374
1447 1447 1447 1447 1447 1447 1448 1448 1449 1450 1450 1451 1452 1453 1454 1456 1457 1457 1456 1455 1453 1452 1450 1447 1444 1441 1438 1434 1431 1427 1424 1420 1417 1413 1409 1405 1401 1398 1394 1390 1385 1381 1377 1373
1446 1446 1446 1445 1445 1445 1445 1445 1445 1446 1447 1448 1449 1451 1452 1453 1453 1453 1452 1451 1450 1448 1446 1444 1441 1438 1435 1432 1428 1425 1421 1418 1415 1411 1408 1404 1400 1396 1393 1389 1385 1381 1377 1373
1447 1446 1446 1445 1444 1443 1442 1443 1443 1443 1444 1445 1446 1447 1448 1448 1448 1448 1448 1447 1446 1444 1442 1440 1438 1435 1432 1429 1425 1422 1419 1416 1413 1409 1406 1403 1399 1396 1392 1388 1385 1381 1377 1374
1447 1446 1445 1445 1444 1443 1442 1442 1442 1442 1443 1444 1444 1444 1444 1444 1444 1444 1443 1443 1441 1440 1439 1437 1435 1432 1429 1426 1423 1420 1417 1414 1411 1408 1405 1402 1398 1395 1392 1388 1384 1381 1378 1374
1450 1448 1446 1445 1444 1444 1443 1441 1441 1441 1441 1442 1441 1441 1441 1440 1439 1439 1439 1438 1437 1436 1435 1433 1431 1429 1426 1423 1421 1418 1415 1412 1410 1407 1403 1400 1397 1394 1391 1388 1385 1381 1378 1375
1453 1452 1449 1448 1447 1446 1445 1443 1442 1441 1440 1439 1439 1438 1437 1437 1436 1435 1434 1433 1433 1432 1431 1430 1428 1426 1423 1421 1418 1416 1413 1411 1408 1405 1402 1400 1397 1394 1391 1388 1384 1381 1378 1375
1456 1454 1453 1451 1449 1447 1446 1444 1442 1440 1439 1437 1436 1435 1433 1432 1431 1430 1429 1429 1429 1428 1427 1426 1424 1422 1420 1418 1416 1414 1411 1409 1407 1404 1401 1399 1396 1393 1390 1388 1385 1382 1378 1375
1457 1455 1453 1450 1448 1446 1444 1442 1439 1437 1435 1433 1432 1430 1429 1427 1426 1426 1425 1425 1424 1424 1423 1422 1421 1419 1417 1415 1413 1412 1409 1407 1405 1403 1400 1398 1395 1393 1391 1388 1385 1382 1379 1376
1456 1453 1451 1448 1445 1442 1440 1437 1435 1432 1430 1428 1426 1425 1424 1422 1421 1421 1420 1420 1420 1420 1419 1419 1417 1416 1414 1413 1411 1409 1408 1406 1404 1402 1399 1397 1395 1393 1391 1388 1386 1383 1380 1377
1453 1450 1447 1444 1441 1438 1435 1432 1429 1427 1424 1422 1420 1419 1418 1417 1416 1416 1416 1416 1416 1416 1416 1415 1414 1413 1411 1410 1408 1407 1405 1404 1402 1400 1398 1396 1394 1393 1391 1389 1387 1384 1382 1379
1449 1447 1444 1441 1438 1435 1432 1429 1426 1423 1420 1418 1416 1414 1413 1412 1411 1411 1411 1411 1412 1412 1412 1412 1411 1410 1408 1407 1406 1404 1403 1402 1400 1399 1397 1396 1394 1392 1391 1389 1388 1386 1384 1382
1446 1443 1440 1437 1435 1432 1429 1426 1423 1421 1418 1415 1412 1410 1409 1407 1407 1406 1406 1407 1408 1408 1408 1408 1407 1407 1405 1404 1403 1402 1401 1400 1399 1397 1396 1395 1394 1392 1391 1390 1389 1387 1386 1384